This is the latest recevied weather packets stored in our database for station/object OE-11361. If no packets are shown the sender has not sent any weather packets the latest 10 day(s).
| Time | Temp. | Humidity | Pressure | Rain* | Wind** | Luminosity | Snow |
|---|---|---|---|---|---|---|---|
| 1787973904 | 15° C | 84% | 1018.9 hPa | 0 mm | - | 0 W/m² | - |
| 1787973076 | 14.44° C | 86% | 1018.8 hPa | 0 mm | - | 0 W/m² | - |
| 1787972704 | 14.44° C | 85% | 1018.9 hPa | 0 mm | - | 0 W/m² | - |
| 1787972104 | 14.44° C | 86% | 1018.9 hPa | 0 mm | - | 0 W/m² | - |
| 1787971277 | 14.44° C | 86% | 1019.2 hPa | 0 mm | - | 0 W/m² | - |
| 1787970904 | 14.44° C | 86% | 1018.9 hPa | 0 mm | - | 0 W/m² | - |
| 1787970304 | 14.44° C | 85% | 1018.8 hPa | 0 mm | - | 0 W/m² | - |
| 1787969476 | 14.44° C | 87% | 1019 hPa | 0 mm | - | 0 W/m² | - |
| 1787969103 | 14.44° C | 86% | 1019.1 hPa | 0 mm | - | 0 W/m² | - |
| 1787968504 | 14.44° C | 90% | 1019.1 hPa | 0 mm | - | 0 W/m² | - |
| 1787967677 | 14.44° C | 88% | 1019.3 hPa | 0 mm | - | 0 W/m² | - |
| 1787967304 | 14.44° C | 88% | 1019.1 hPa | 0 mm | - | 0 W/m² | - |
| 1787966704 | 14.44° C | 90% | 1019.2 hPa | 0 mm | - | 0 W/m² | - |
| 1787965877 | 14.44° C | 91% | 1019.5 hPa | 0 mm | - | 0 W/m² | - |
| 1787964904 | 14.44° C | 93% | 1019.8 hPa | 0 mm | - | 0 W/m² | - |
| 1787964077 | 14.44° C | 93% | 1020 hPa | 0 mm | - | 0 W/m² | - |
| 1787963704 | 14.44° C | 95% | 1020.3 hPa | 0 mm | - | 0 W/m² | - |
| 1787963103 | 14.44° C | 96% | 1020.5 hPa | 0 mm | - | 0 W/m² | - |
| 1787962276 | 14.44° C | 96% | 1020.5 hPa | 0 mm | - | 0 W/m² | - |
| 1787961903 | 14.44° C | 95% | 1020.8 hPa | 0 mm | - | 0 W/m² | - |
| 1787961304 | 14.44° C | 96% | 1020.8 hPa | 1.02 mm | - | 0 W/m² | - |
| 1787960477 | 15° C | 93% | 1020.7 hPa | 1.78 mm | - | 0 W/m² | - |
| 1787960104 | 15° C | 94% | 1020.7 hPa | 3.05 mm | - | 0 W/m² | - |
| 1787959503 | 15° C | 96% | 1020.6 hPa | 3.81 mm | - | 0 W/m² | - |
| 1787958904 | 15° C | 95% | 1020.2 hPa | 4.06 mm | - | 0 W/m² | - |
* Rain latest hour (hover to see other rain measurements)
** Current wind speed in m/s (hover to see current wind gust speed)